Location: *
(58.7167°N, 26.1833°E)
Time: 04:03:13
(UTC+00:00)

Cosmos 1954 Rocket - Pass Details

Date: 25 August 2019
Orbit: 752 x 782 km, 74.0° (Epoch: 17 September)

Event Time Altitude Azimuth Distance (km) Brightness Sun altitude
Rises 23:15:00 0° 328° (NNW) 3,279 7.9 -19.7°
Reaches altitude 10° 23:17:28 10° 322° (NW) 2,344 7.0 -19.6°
Maximum altitude 23:22:31 46° 251° (WSW) 1,043 4.4 -19.4°
Enters shadow 23:23:52 38° 212° (SSW) 1,181 4.5 -19.4°
